KJ5BMY-13 Weather Reports


time (UTC)temp
C
wind
direction
speed
KPH
gust
KPH
rain 1hr
cm
rain 24hr
cm
rain mn
cm
humidity
%
barometer
mb
20260509064936 21 187 1.6 3.2 0.00 0.00 0.00 89 1012.3
20260509064435 21 13 0.0 1.6 0.00 0.00 0.00 89 1011.9
20260509063933 21 222 0.0 1.6 0.00 0.00 0.00 89 1011.7
20260509063432 21 349 0.0 1.6 0.00 0.00 0.00 89 1011.9
20260509062930 21 331 0.0 4.8 0.00 0.00 0.00 89 1011.9
20260509062427 21 37 0.0 1.6 0.00 0.00 0.00 88 1012.1
20260509061925 21 233 0.0 3.2 0.00 0.00 0.00 88 1012.1
20260509061422 21 115 0.0 1.6 0.00 0.00 0.00 87 1012.3
20260509060919 21 230 1.6 3.2 0.00 0.00 0.00 87 1012.0
20260509060416 21 131 1.6 1.6 0.00 0.00 0.00 87 1012.5
20260509055911 21 222 1.6 3.2 0.00 0.00 0.00 87 1012.7
20260509055407 21 58 0.0 0.0 0.00 0.00 0.00 86 1012.5
20260509054904 21 165 0.0 1.6 0.00 0.00 0.00 86 1012.7
20260509054401 21 239 0.0 0.0 0.00 0.00 0.00 85 1013.0
20260509053859 21 344 0.0 0.0 0.00 0.00 0.00 85 1012.9
20260509053356 21 140 0.0 3.2 0.00 0.00 0.00 84 1012.6
20260509052854 21 216 1.6 1.6 0.00 0.00 0.00 85 1012.9
20260509052351 21 293 0.0 0.0 0.00 0.00 0.00 86 1013.2
20260509051849 21 294 0.0 1.6 0.00 0.00 0.00 86 1013.6
20260509051347 21 346 0.0 0.0 0.00 0.00 0.00 85 1013.5
20260509050843 21 331 0.0 1.6 0.00 0.00 0.00 85 1013.2
20260509050340 21 337 0.0 0.0 0.00 0.00 0.00 85 1012.5
20260509045837 21 5 0.0 1.6 0.00 0.00 0.00 84 1011.9
20260509045334 21 185 0.0 1.6 0.00 0.00 0.00 84 1012.0
20260509044831 21 273 0.0 0.0 0.00 0.00 0.00 83 1012.2
20260509044329 21 0 0.0 1.6 0.00 0.00 0.00 83 1011.8
20260509043825 21 23 0.0 3.2 0.00 0.00 0.00 83 1011.7
20260509043321 21 174 0.0 3.2 0.00 0.00 0.00 82 1011.7
20260509042817 21 148 0.0 3.2 0.00 0.00 0.00 82 1011.9
20260509042314 21 156 1.6 3.2 0.00 0.00 0.00 82 1011.6
20260509041810 21 179 0.0 4.8 0.00 0.00 0.00 82 1011.9
20260509041308 22 87 3.2 4.8 0.00 0.00 0.00 81 1011.5
20260509040806 22 143 3.2 3.2 0.00 0.00 0.00 80 1012.5
20260509040303 22 126 0.0 1.6 0.00 0.00 0.00 80 1012.4
20260509035800 22 61 0.0 0.0 0.00 0.00 0.00 80 1012.7
20260509035256 22 294 0.0 0.0 0.00 0.00 0.00 80 1012.8
20260509034753 22 305 0.0 0.0 0.00 0.00 0.00 80 1012.7
20260509034251 22 63 0.0 0.0 0.00 0.00 0.00 80 1013.0
20260509033748 22 10 0.0 0.0 0.00 0.00 0.00 80 1012.8
20260509033245 22 12 0.0 0.0 0.00 0.00 0.00 80 1012.7
20260509032742 22 54 0.0 0.0 0.00 0.00 0.00 80 1012.5
20260509032239 22 349 0.0 0.0 0.00 0.00 0.00 80 1012.2
20260509031736 22 213 0.0 0.0 0.00 0.00 0.00 80 1012.4
20260509031233 22 336 0.0 1.6 0.00 0.00 0.00 80 1012.2
20260509030731 22 219 0.0 1.6 0.00 0.00 0.00 80 1012.1
20260509030229 22 220 0.0 0.0 0.00 0.00 0.00 80 1012.3
20260509025725 22 175 0.0 4.8 0.00 0.00 0.00 79 1012.1
20260509025221 22 118 0.0 4.8 0.00 0.00 0.00 80 1011.8
20260509024716 22 27 0.0 4.8 0.00 0.00 0.00 80 1011.8
20260509024212 22 144 3.2 4.8 0.00 0.00 0.00 80 1011.5
20260509023710 22 59 3.2 4.8 0.00 0.00 0.00 80 1011.4
20260509023207 22 175 3.2 3.2 0.00 0.00 0.00 80 1011.2
20260509022703 22 190 1.6 3.2 0.00 0.00 0.00 79 1011.4
20260509022201 22 142 1.6 3.2 0.00 0.00 0.00 79 1011.2
20260509021658 22 213 3.2 6.4 0.00 0.00 0.00 78 1011.0
20260509021155 22 111 3.2 4.8 0.00 0.00 0.00 78 1011.1
20260509020653 22 106 3.2 4.8 0.00 0.00 0.00 78 1011.2
20260509020150 22 142 3.2 4.8 0.00 0.00 0.00 77 1011.1
20260509015648 22 180 1.6 3.2 0.00 0.00 0.00 77 1011.1
20260509015146 22 69 0.0 1.6 0.00 0.00 0.00 77 1011.1
20260509014642 22 151 0.0 3.2 0.00 0.00 0.00 77 1011.1
20260509014138 22 143 0.0 1.6 0.00 0.00 0.00 77 1011.2
20260509013636 22 71 0.0 1.6 0.00 0.00 0.00 77 1011.0
20260509013131 22 185 0.0 3.2 0.00 0.00 0.00 77 1011.1
20260509012628 22 149 1.6 1.6 0.00 0.00 0.00 76 1010.6
20260509012125 22 214 0.0 1.6 0.00 0.00 0.00 76 1010.8
20260509011623 22 65 0.0 1.6 0.00 0.00 0.00 76 1010.7
20260509011120 22 199 1.6 3.2 0.00 0.00 0.00 76 1010.6
20260509010617 22 196 1.6 3.2 0.00 0.00 0.00 75 1010.7
20260509010114 22 200 1.6 3.2 0.00 0.00 0.00 75 1010.7
20260509005612 22 230 0.0 1.6 0.00 0.00 0.00 75 1010.7
20260509005107 22 42 0.0 4.8 0.00 0.00 0.00 75 1010.5
20260509004604 22 159 3.2 9.7 0.00 0.00 0.00 74 1010.4
20260509004101 22 202 1.6 3.2 0.00 0.00 0.00 74 1010.3
20260509003559 22 341 1.6 3.2 0.00 0.00 0.00 74 1010.3
20260509003056 22 159 3.2 6.4 0.00 0.00 0.00 74 1010.4
20260509002554 23 72 3.2 6.4 0.00 0.00 0.00 73 1010.4
20260509002051 23 114 4.8 9.7 0.00 0.00 0.00 73 1010.3
20260509001548 23 87 1.6 4.8 0.00 0.00 0.00 72 1010.3
20260509001044 23 182 3.2 9.7 0.00 0.00 0.00 72 1010.4
20260509000542 23 125 4.8 6.4 0.00 0.00 0.00 71 1010.5
20260509000038 23 221 3.2 6.4 0.00 0.00 0.00 71 1010.5
20260508235536 23 103 4.8 9.7 0.00 0.00 0.00 70 1010.6
20260508235032 23 190 3.2 6.4 0.00 0.00 0.00 70 1010.6
20260508234530 23 119 1.6 6.4 0.00 0.00 0.00 70 1010.6
20260508234027 23 151 3.2 4.8 0.00 0.00 0.00 70 1010.8
20260508233526 23 110 1.6 6.4 0.00 0.00 0.00 69 1010.7
20260508233023 24 106 1.6 9.7 0.00 0.00 0.00 69 1010.6
20260508232520 24 93 3.2 6.4 0.00 0.00 0.00 68 1010.9
20260508232017 24 169 6.4 6.4 0.00 0.00 0.00 68 1010.7
20260508231514 24 161 3.2 9.7 0.00 0.00 0.00 68 1011.0
20260508231011 24 233 1.6 4.8 0.00 0.00 0.00 68 1010.8
20260508230508 23 140 1.6 6.4 0.00 0.00 0.00 68 1011.0
20260508230004 24 99 6.4 11.3 0.00 0.00 0.00 67 1010.9
20260508225502 25 125 0.0 6.4 0.00 0.00 0.00 67 1011.0
20260508224958 25 103 1.6 3.2 0.00 0.00 0.00 67 1011.1
20260508224456 25 157 3.2 16.1 0.00 0.00 0.00 67 1010.9
20260508223953 25 160 1.6 11.3 0.00 0.00 0.00 67 1010.8
20260508223451 25 111 3.2 4.8 0.00 0.00 0.00 66 1010.8
20260508222948 25 205 3.2 6.4 0.00 0.00 0.00 66 1010.9
20260508222446 26 164 6.4 12.9 0.00 0.00 0.00 65 1010.6
20260508221942 26 81 1.6 4.8 0.00 0.00 0.00 65 1010.7
20260508221438 26 134 4.8 6.4 0.00 0.00 0.00 64 1010.8
20260508220934 26 171 3.2 9.7 0.00 0.00 0.00 65 1010.6
20260508220431 26 217 3.2 9.7 0.00 0.00 0.00 64 1010.7
20260508215927 26 158 3.2 6.4 0.00 0.00 0.00 65 1010.8
20260508215424 26 166 6.4 9.7 0.00 0.00 0.00 65 1010.7
20260508214921 25 158 1.6 3.2 0.00 0.00 0.00 64 1010.5
20260508214419 26 247 3.2 4.8 0.00 0.00 0.00 62 1010.8
20260508213914 26 163 4.8 4.8 0.00 0.00 0.00 62 1010.8
20260508213412 26 204 3.2 4.8 0.00 0.00 0.00 62 1010.5
20260508212907 26 238 1.6 9.7 0.00 0.00 0.00 63 1010.7
20260508212404 26 155 3.2 9.7 0.00 0.00 0.00 62 1010.9
20260508211900 26 23 1.6 6.4 0.00 0.00 0.00 62 1010.8
20260508211355 25 167 0.0 4.8 0.00 0.00 0.00 64 1011.1
20260508210854 23 209 3.2 6.4 0.00 0.00 0.00 67 1011.4
20260508210350 23 115 1.6 4.8 0.00 0.00 0.00 69 1011.7
20260508205846 23 115 3.2 6.4 0.00 0.00 0.00 67 1012.0
20260508205343 23 246 1.6 4.8 0.00 0.00 0.00 68 1012.2
20260508204839 23 69 0.0 1.6 0.00 0.00 0.00 68 1012.2
20260508204336 23 215 1.6 6.4 0.00 0.00 0.00 68 1012.4
20260508203832 23 245 1.6 9.7 0.00 0.00 0.00 67 1012.6
20260508203329 23 160 1.6 6.4 0.00 0.00 0.00 67 1012.7
20260508202824 23 72 3.2 6.4 0.00 0.00 0.00 66 1012.8
20260508202323 24 82 1.6 9.7 0.00 0.00 0.00 66 1012.6
20260508201819 24 105 1.6 6.4 0.00 0.00 0.00 65 1012.7
20260508201316 25 100 1.6 4.8 0.00 0.00 0.00 64 1012.5
20260508200812 25 140 3.2 6.4 0.00 0.00 0.00 63 1012.6
20260508200309 25 51 0.0 3.2 0.00 0.00 0.00 63 1012.6
20260508195805 26 326 0.0 4.8 0.00 0.00 0.00 61 1012.6
20260508195305 26 341 1.6 11.3 0.00 0.00 0.00 60 1012.5
20260508194758 26 204 1.6 4.8 0.00 0.00 0.00 61 1012.6
20260508194255 26 102 1.6 4.8 0.00 0.00 0.00 61 1012.6
20260508193752 26 274 1.6 4.8 0.00 0.00 0.00 61 1012.6
20260508193249 26 134 3.2 4.8 0.00 0.00 0.00 62 1012.6
20260508192745 26 173 3.2 9.7 0.00 0.00 0.00 61 1012.9
20260508192243 26 105 4.8 6.4 0.00 0.00 0.00 60 1012.8
20260508191740 26 153 3.2 4.8 0.00 0.00 0.00 61 1013.1
20260508191237 26 178 6.4 6.4 0.00 0.00 0.00 61 1013.0
20260508190734 26 215 3.2 6.4 0.00 0.00 0.00 59 1013.0
20260508190229 26 178 4.8 6.4 0.00 0.00 0.00 60 1013.0
20260508185726 26 199 3.2 4.8 0.00 0.00 0.00 58 1013.0
20260508185224 26 168 1.6 11.3 0.00 0.00 0.00 58 1012.9
20260508184721 27 175 4.8 6.4 0.00 0.00 0.00 57 1013.0
20260508184218 27 289 3.2 6.4 0.00 0.00 0.00 58 1012.9
20260508183715 27 147 1.6 4.8 0.00 0.00 0.00 57 1013.1
20260508183211 27 112 1.6 9.7 0.00 0.00 0.00 58 1013.3
20260508182707 27 203 6.4 9.7 0.00 0.00 0.00 57 1013.3
20260508182204 26 152 3.2 4.8 0.00 0.00 0.00 57 1013.6
20260508181700 26 344 3.2 4.8 0.00 0.00 0.00 57 1013.5
20260508181157 26 322 1.6 4.8 0.00 0.00 0.00 58 1013.6
20260508180653 27 128 4.8 9.7 0.00 0.00 0.00 57 1013.8
20260508180151 26 170 1.6 9.7 0.00 0.00 0.00 58 1013.9
20260508175647 26 248 1.6 4.8 0.00 0.00 0.00 58 1013.9
20260508175144 25 317 1.6 6.4 0.00 0.00 0.00 59 1013.9
20260508174642 26 207 3.2 9.7 0.00 0.00 0.00 58 1014.3
20260508174138 25 297 0.0 4.8 0.00 0.00 0.00 59 1014.3
20260508173635 25 337 3.2 4.8 0.00 0.00 0.00 61 1014.3
20260508173131 26 162 3.2 6.4 0.00 0.00 0.00 60 1014.1
20260508172628 25 109 3.2 6.4 0.00 0.00 0.00 59 1014.3
20260508172125 25 169 3.2 9.7 0.00 0.00 0.00 61 1014.5
20260508171621 24 255 4.8 6.4 0.00 0.00 0.00 60 1014.8
20260508171118 25 108 1.6 6.4 0.00 0.00 0.00 59 1014.8
20260508170615 24 21 3.2 4.8 0.00 0.00 0.00 61 1014.9
20260508170113 23 221 1.6 6.4 0.00 0.00 0.00 61 1015.2
20260508165609 23 255 3.2 6.4 0.00 0.00 0.00 63 1015.4
20260508165106 23 213 3.2 9.7 0.00 0.00 0.00 63 1015.3
20260508164603 23 358 1.6 6.4 0.00 0.00 0.00 62 1015.5
20260508164059 23 110 4.8 11.3 0.00 0.00 0.00 62 1015.5
20260508163557 23 273 3.2 12.9 0.00 0.00 0.00 61 1015.8
20260508163054 23 47 1.6 3.2 0.00 0.00 0.00 63 1015.8
20260508162550 22 172 0.0 1.6 0.00 0.00 0.00 64 1015.7
20260508162048 22 28 0.0 3.2 0.00 0.00 0.00 65 1016.0
20260508161545 22 164 3.2 4.8 0.00 0.00 0.00 65 1016.0
20260508161042 22 151 4.8 6.4 0.00 0.00 0.00 65 1016.0
20260508160540 21 197 4.8 6.4 0.00 0.00 0.00 65 1016.0
20260508160037 21 178 1.6 9.7 0.00 0.00 0.00 66 1016.0
20260508155534 21 195 6.4 6.4 0.00 0.00 0.00 66 1016.1
20260508155031 21 303 1.6 9.7 0.00 0.00 0.00 66 1016.6
20260508154528 21 186 4.8 4.8 0.00 0.00 0.00 66 1016.4
20260508154025 21 66 1.6 6.4 0.00 0.00 0.00 66 1016.6
20260508153522 21 138 3.2 6.4 0.00 0.00 0.00 67 1016.4
20260508153018 21 174 3.2 9.7 0.00 0.00 0.00 67 1016.5
20260508152515 21 172 3.2 9.7 0.00 0.00 0.00 66 1016.7
20260508152011 20 347 0.0 4.8 0.00 0.00 0.00 67 1016.6
20260508151508 20 91 4.8 6.4 0.00 0.00 0.00 67 1016.6
20260508151004 20 205 1.6 4.8 0.00 0.00 0.00 68 1016.6
20260508150501 20 184 3.2 4.8 0.00 0.00 0.00 66 1016.6
20260508145956 21 293 0.0 1.6 0.00 0.00 0.00 67 1016.5
20260508145454 20 210 4.8 9.7 0.00 0.00 0.00 68 1016.4
20260508144950 20 130 1.6 6.4 0.00 0.00 0.00 67 1016.2
20260508144448 20 143 3.2 4.8 0.00 0.00 0.00 67 1016.5
20260508143945 20 109 3.2 4.8 0.00 0.00 0.00 68 1016.5
20260508143443 20 1 1.6 4.8 0.00 0.00 0.00 66 1016.6
20260508142938 21 119 3.2 6.4 0.00 0.00 0.00 66 1016.8
20260508142436 21 118 3.2 4.8 0.00 0.00 0.00 65 1016.4
20260508141932 21 62 1.6 3.2 0.00 0.00 0.00 68 1016.5
20260508141429 21 333 0.0 3.2 0.00 0.00 0.00 69 1016.9
20260508140927 20 51 4.8 6.4 0.00 0.00 0.00 69 1016.9
20260508140424 20 153 3.2 11.3 0.00 0.00 0.00 70 1016.6
20260508135919 20 112 4.8 4.8 0.00 0.00 0.00 70 1016.7
20260508135416 19 127 0.0 4.8 0.00 0.00 0.00 74 1016.7
20260508134913 18 48 0.0 3.2 0.00 0.00 0.00 76 1016.8
20260508134409 18 97 1.6 4.8 0.00 0.00 0.00 76 1016.7
20260508133906 18 145 1.6 4.8 0.00 0.00 0.00 76 1016.7
20260508133404 17 75 0.0 1.6 0.00 0.00 0.00 81 1016.7
20260508132900 17 152 1.6 3.2 0.00 0.00 0.00 82 1016.7
20260508132358 17 188 1.6 3.2 0.00 0.00 0.00 83 1016.7
20260508131855 17 152 1.6 1.6 0.00 0.00 0.00 83 1017.0
20260508131350 17 126 1.6 3.2 0.00 0.00 0.00 83 1016.7
20260508130847 17 173 0.0 1.6 0.00 0.00 0.00 84 1016.9
20260508130344 17 13 0.0 0.0 0.00 0.00 0.00 85 1016.8
20260508125840 16 128 0.0 1.6 0.00 0.00 0.00 85 1017.0
20260508125336 16 307 3.2 3.2 0.00 0.00 0.00 86 1016.8
20260508124834 16 168 1.6 1.6 0.00 0.00 0.00 86 1016.7
20260508124331 16 106 0.0 0.0 0.00 0.00 0.00 86 1017.0
20260508123829 16 116 0.0 0.0 0.00 0.00 0.00 86 1017.3
20260508123328 16 241 0.0 0.0 0.00 0.00 0.00 87 1017.2
20260508122823 16 81 0.0 1.6 0.00 0.00 0.00 87 1017.0
20260508122320 16 5 0.0 1.6 0.00 0.00 0.00 87 1016.9
20260508121818 16 8 0.0 1.6 0.00 0.00 0.00 86 1017.1
20260508121316 16 7 0.0 0.0 0.00 0.00 0.00 86 1017.0
20260508120813 16 108 0.0 0.0 0.00 0.00 0.00 87 1016.9
20260508120311 16 18 0.0 0.0 0.00 0.00 0.00 87 1017.2
20260508115808 16 354 0.0 0.0 0.00 0.00 0.00 87 1017.2
20260508115306 16 99 0.0 1.6 0.00 0.00 0.00 87 1016.9
20260508114802 16 91 0.0 0.0 0.00 0.00 0.00 87 1016.9
20260508114259 16 101 0.0 0.0 0.00 0.00 0.00 86 1017.2
20260508113755 16 354 0.0 1.6 0.00 0.00 0.00 86 1016.9
20260508113254 16 114 3.2 4.8 0.00 0.00 0.00 86 1017.1
20260508112750 16 141 3.2 3.2 0.00 0.00 0.00 86 1016.8
20260508112247 16 154 1.6 1.6 0.00 0.00 0.00 86 1016.6
20260508111743 16 86 0.0 0.0 0.00 0.00 0.00 85 1016.9
20260508111241 16 26 0.0 1.6 0.00 0.00 0.00 84 1017.1
20260508110738 16 127 0.0 1.6 0.00 0.00 0.00 84 1016.8
20260508110235 16 141 1.6 1.6 0.00 0.00 0.00 84 1017.3
20260508105730 16 250 0.0 1.6 0.00 0.00 0.00 85 1017.4
20260508105227 16 251 0.0 0.0 0.00 0.00 0.00 86 1017.5
20260508104724 16 251 0.0 0.0 0.00 0.00 0.00 87 1017.3
20260508104221 16 151 0.0 0.0 0.00 0.00 0.00 88 1017.3
20260508103718 16 151 0.0 0.0 0.00 0.00 0.00 88 1016.6
20260508103215 16 151 0.0 0.0 0.00 0.00 0.00 88 1016.2
20260508102712 16 96 0.0 0.0 0.00 0.00 0.00 88 1016.2
20260508102210 16 27 0.0 1.6 0.00 0.00 0.00 88 1016.1
20260508101707 16 135 0.0 1.6 0.00 0.00 0.00 88 1015.9
20260508101205 16 81 0.0 1.6 0.00 0.00 0.00 88 1016.1
20260508100702 16 38 0.0 0.0 0.00 0.00 0.00 88 1016.0
20260508100200 16 84 0.0 1.6 0.00 0.00 0.00 87 1016.1
20260508095656 16 136 0.0 3.2 0.00 0.00 0.00 87 1016.1
20260508095153 16 56 0.0 0.0 0.00 0.00 0.00 87 1015.7
20260508094650 16 345 0.0 0.0 0.00 0.00 0.00 87 1016.0
20260508094147 16 104 1.6 3.2 0.00 0.00 0.00 87 1016.3
20260508093644 16 107 0.0 0.0 0.00 0.00 0.00 87 1016.3
20260508093142 16 295 0.0 0.0 0.00 0.00 0.00 87 1016.3
20260508092639 16 156 0.0 1.6 0.00 0.00 0.00 87 1016.0
20260508092137 16 308 0.0 0.0 0.00 0.00 0.00 87 1016.1
20260508091634 16 307 0.0 0.0 0.00 0.00 0.00 87 1016.3
20260508091131 16 358 0.0 0.0 0.00 0.00 0.00 87 1016.1
20260508090629 16 358 0.0 0.0 0.00 0.00 0.00 87 1016.4
20260508090126 16 309 0.0 0.0 0.00 0.00 0.00 86 1016.6
20260508085622 16 308 0.0 0.0 0.00 0.00 0.00 86 1016.6
20260508085120 16 219 0.0 3.2 0.00 0.00 0.00 86 1016.3
20260508084616 16 109 3.2 3.2 0.00 0.00 0.00 85 1016.3
20260508084114 16 101 3.2 4.8 0.00 0.00 0.00 85 1016.0
20260508083610 16 132 1.6 3.2 0.00 0.00 0.00 85 1016.3
20260508083108 16 342 0.0 3.2 0.00 0.00 0.00 86 1016.7
20260508082603 16 158 0.0 1.6 0.00 0.00 0.00 86 1016.7
20260508082100 16 127 0.0 1.6 0.00 0.00 0.00 85 1017.1
20260508081558 16 153 1.6 1.6 0.00 0.00 0.00 84 1017.1
20260508081054 16 170 1.6 1.6 0.00 0.00 0.00 85 1017.3
20260508080552 16 248 0.0 0.0 0.00 0.00 0.00 85 1017.5
20260508080049 16 248 0.0 0.0 0.00 0.00 0.00 85 1017.7
20260508075545 16 248 0.0 0.0 0.00 0.00 0.00 85 1018.0
20260508075043 16 248 0.0 0.0 0.00 0.00 0.00 85 1017.9
20260508074541 16 248 0.0 0.0 0.00 0.00 0.00 86 1017.7
20260508074037 16 248 0.0 0.0 0.00 0.00 0.00 86 1017.4
20260508073535 16 248 0.0 0.0 0.00 0.00 0.00 85 1017.1
20260508073032 16 248 0.0 0.0 0.00 0.00 0.00 86 1017.1
20260508072528 16 248 0.0 0.0 0.00 0.00 0.00 85 1017.2
20260508072025 16 248 0.0 1.6 0.00 0.00 0.00 85 1017.2
20260508071523 16 248 0.0 0.0 0.00 0.00 0.00 85 1017.3
20260508071020 16 248 0.0 0.0 0.00 0.00 0.00 85 1017.3
20260508070518 16 248 0.0 1.6 0.00 0.00 0.00 85 1017.3
20260508070016 16 301 0.0 0.0 0.00 0.00 0.00 85 1017.4
20260508065514 16 301 0.0 0.0 0.00 0.00 0.00 85 1017.5